Vertical_Velocity
-4 -6 -3 -1 -0 3 0 1 -4 3 2 1 0 -0 3 1 3 -1 6 -0 1 -0 1 0 -1 1 -0 -1 1 -0 -1 0 -2 -0 -1 1 -1 -0 -1 -1 -0 -1 -2
-3 -5 -3 0 1 1 2 6 8 -1 5 2 3 0 -4 4 0 -2 3 2 -0 -0 1 1 0 -1 -2 -2 0 0 -1 0 -1 -1 -3 3 -1 -2 1 -2 -2 -1 -0
-0 -4 -1 0 -5 2 -1 2 5 4 2 3 -3 -0 -2 4 3 7 -1 5 -2 -0 -1 -2 -0 -2 -2 -1 -0 1 -3 -1 -2 0 -1 0 1 -0 -1 1 0 -2 -2
3 -3 -5 -2 1 1 0 2 -2 1 3 2 0 -1 0 1 5 3 -4 -0 1 -0 -1 1 4 3 -0 -2 -5 -1 -0 -1 -1 -3 0 -2 2 0 4 1 0 -1 -2
1 -3 -1 -4 0 -2 -2 -2 -0 2 -1 0 1 -1 -1 3 5 1 1 0 -1 2 3 3 1 -0 -1 1 -1 -5 -2 -3 -2 -4 -3 -3 -4 -4 2 8 11 1 -2
3 0 -2 -3 -2 -0 -2 -4 -1 -1 -2 2 0 6 3 4 4 6 1 3 -1 -2 -0 2 2 4 2 3 -1 -0 1 -0 0 -2 -3 -1 0 0 -4 -4 3 3 -0
2 -1 -2 0 -1 -5 -2 -0 0 -0 -0 -2 0 2 4 1 5 2 4 3 3 8 3 -3 3 1 3 4 2 3 -0 3 1 -3 -0 0 0 -0 -1 -2 4 0 -1
-3 -1 0 -1 -3 -3 -2 -2 -1 1 -1 -0 -2 0 2 2 4 5 4 4 2 0 7 -4 -1 5 6 5 2 2 3 2 1 -1 -2 3 1 1 2 3 5 1 1
-2 -2 -3 -2 -1 -0 -0 2 0 -2 -1 0 1 1 0 1 2 0 2 5 3 5 8 6 6 2 2 7 5 4 5 -0 1 2 -2 2 2 -3 -0 3 32 -2 4
0 1 0 -0 -0 0 0 1 2 -0 -1 1 -1 -2 -1 1 2 2 1 0 0 1 2 5 7 8 4 3 4 5 2 -0 2 0 -0 1 -1 3 1 -0 3 -4 -1
0 0 0 -0 0 1 -0 -1 -2 -1 -0 -5 -3 2 0 -1 1 3 4 4 4 3 5 5 4 6 7 1 2 -1 0 0 2 1 -1 0 3 -5 26 -14 10 21 3
0 -1 -2 -2 2 -1 0 -2 -3 0 4 -0 -1 2 3 1 -1 -3 -1 -0 3 3 3 3 5 6 6 2 0 1 0 1 3 1 1 1 3 -5 39 -5 29 16 -3
-2 -1 -1 1 -0 -1 -0 0 2 1 -0 1 2 -1 1 4 6 7 4 2 -1 -0 5 3 1 2 0 1 1 3 3 3 2 3 0 -3 3 -2 9 2 3 0 -2
-0 1 3 -0 -1 -1 -3 -0 0 0 2 2 1 -0 -1 -1 0 3 3 6 1 1 4 4 2 -1 0 4 3 4 4 1 3 2 -1 8 -4 13 20 -1 -5 1 3
-1 -2 -2 -3 -1 2 1 -2 -0 -1 -3 -4 -4 -3 -2 0 4 5 3 2 2 -3 1 3 3 3 3 0 3 2 1 2 1 1 -1 20 3 1 1 -5 4 -0 2
-2 1 -2 2 1 -3 -3 -3 -5 -6 -3 -4 -4 -4 -5 -1 -1 -1 -3 -3 2 3 7 9 4 3 -1 8 5 1 3 1 1 6 3 0 5 -2 -1 -0 4 9 -2
0 -1 -1 -1 2 -3 -2 2 1 -2 -3 -4 -7 -5 -3 -5 2 -2 -6 -4 -2 3 3 -1 5 4 -5 -0 -3 4 0 1 -0 -1 2 -1 0 4 5 3 2 1 -4
-1 -2 -1 -1 2 -1 0 -1 -3 -3 -4 -4 -6 -5 -5 -6 -6 -9 -10 -3 1 -5 -0 0 -3 14 23 2 2 -3 -1 1 1 6 2 1 0 8 1 2 1 -2 -5
-1 -0 -0 -0 0 -1 -0 -1 -1 -3 -3 -3 -5 -3 -4 -6 -8 -5 -4 -4 -1 -3 -5 16 -2 4 4 -0 3 0 0 3 0 7 2 -1 -1 1 -0 5 2 1 -0
-2 -1 1 0 -0 -0 -2 -1 -2 -2 -3 -4 -2 -4 -5 -3 -1 -3 -4 -0 -5 -2 0 -1 -2 -2 -2 1 5 6 2 1 -0 3 -0 0 -1 1 -2 0 1 3 1
-2 -0 0 -0 -2 1 0 1 -4 -3 -4 -3 0 -1 -5 -5 -6 -6 -3 -3 -1 4 -0 10 9 6 4 -1 -3 1 5 1 -1 -1 1 3 3 1 0 -1 1 1 3
-2 -1 -1 1 1 1 0 -1 0 -0 -1 -1 -1 0 -3 -4 -3 -2 -1 -1 -2 0 2 3 3 3 2 3 3 -2 -2 0 -1 0 1 -3 -2 0 2 -0 -3 -4 -3
0 -0 -0 -1 -2 -2 -1 1 -2 -1 -1 1 -1 -3 -3 -2 -0 -0 -2 -3 -2 1 0 -1 -1 -1 -0 -1 -2 -0 0 1 -0 -1 -0 1 -1 -2 -4 -4 -0 2 2
1 2 1 0 -2 -1 -2 0 -1 0 -1 -2 -2 -1 -3 -2 -3 -2 -2 -0 -1 -1 0 -0 -1 -1 -1 1 2 1 1 1 1 -2 -3 -3 -4 -2 2 1 1 -2 -1
1 2 -0 -1 -1 -2 -1 -0 -0 2 -1 -1 -1 -1 -1 -0 -1 -0 -0 0 0 -1 -2 -2 -1 0 1 0 -0 -0 0 1 -0 -1 -3 -3 -1 -4 -0 -0 -3 -0 -3
2 1 2 1 -1 -1 0 0 1 1 0 1 0 -0 -1 -3 -2 -0 -1 -1 -2 -2 -0 1 1 -1 -1 0 1 0 -0 -1 -3 -2 -2 -3 -1 -1 -4 -3 -2 -3 -3
Height
5762 5765 5770 5773 5776 5780 5785 5787 5787 5789 5791 5791 5793 5795 5797 5798 5798 5800 5800 5800 5802 5803 5802 5802 5802 5801 5802 5801 5801 5801 5800 5799 5799 5798 5797 5796 5795 5793 5791 5790 5788 5787 5785
5753 5757 5760 5765 5769 5773 5777 5780 5783 5783 5784 5786 5786 5787 5788 5789 5791 5791 5791 5793 5793 5793 5793 5793 5794 5793 5794 5793 5794 5794 5792 5792 5791 5790 5788 5788 5788 5786 5784 5782 5781 5778 5777
5746 5750 5753 5757 5760 5764 5768 5770 5774 5776 5777 5777 5778 5779 5780 5782 5783 5784 5783 5783 5782 5783 5783 5784 5785 5786 5785 5785 5785 5785 5784 5783 5782 5781 5780 5779 5780 5777 5775 5774 5772 5770 5768
5738 5741 5745 5748 5752 5754 5758 5761 5762 5764 5767 5768 5768 5769 5771 5773 5774 5773 5771 5771 5773 5774 5775 5775 5777 5777 5777 5777 5777 5776 5775 5773 5773 5771 5771 5769 5769 5766 5766 5764 5763 5760 5758
5730 5733 5737 5740 5742 5745 5748 5751 5754 5755 5756 5757 5759 5760 5762 5764 5764 5763 5762 5762 5763 5764 5766 5766 5767 5767 5767 5767 5766 5766 5766 5764 5764 5762 5761 5760 5759 5758 5757 5756 5752 5750 5748
5721 5725 5728 5731 5734 5736 5740 5742 5744 5746 5747 5748 5749 5750 5753 5753 5753 5753 5753 5754 5754 5754 5755 5757 5756 5756 5756 5756 5755 5755 5756 5755 5754 5752 5750 5749 5748 5747 5746 5745 5742 5737 5737
5713 5716 5720 5723 5725 5728 5730 5733 5734 5735 5737 5738 5740 5740 5741 5742 5743 5743 5744 5744 5745 5745 5745 5744 5744 5744 5744 5744 5743 5743 5743 5743 5742 5740 5739 5738 5736 5735 5734 5733 5730 5724 5724
5706 5709 5712 5714 5716 5719 5721 5722 5724 5725 5726 5728 5729 5730 5731 5731 5732 5732 5733 5733 5733 5734 5733 5732 5732 5732 5731 5730 5730 5730 5730 5730 5729 5728 5728 5727 5726 5724 5724 5721 5717 5713 5711
5698 5701 5704 5706 5709 5711 5713 5715 5716 5717 5718 5719 5720 5720 5720 5720 5719 5718 5718 5718 5718 5719 5719 5718 5719 5718 5718 5718 5717 5717 5718 5717 5716 5716 5715 5716 5715 5713 5710 5708 5702 5699 5698
5691 5694 5697 5700 5701 5703 5705 5707 5708 5709 5709 5709 5709 5708 5707 5706 5704 5703 5703 5702 5702 5702 5701 5701 5702 5703 5704 5704 5705 5705 5705 5704 5704 5704 5705 5703 5702 5699 5696 5694 5692 5689 5686
5686 5689 5691 5693 5695 5696 5697 5698 5698 5699 5698 5696 5695 5694 5692 5691 5689 5687 5685 5684 5683 5683 5684 5684 5685 5687 5688 5690 5692 5692 5691 5692 5692 5692 5692 5690 5688 5685 5679 5682 5679 5674 5670
5680 5682 5684 5686 5688 5689 5689 5689 5689 5688 5686 5684 5683 5681 5678 5674 5671 5668 5666 5665 5665 5665 5666 5667 5669 5671 5673 5675 5677 5678 5679 5679 5679 5679 5678 5677 5676 5674 5665 5667 5665 5659 5658
5673 5676 5678 5679 5680 5681 5681 5681 5680 5678 5675 5672 5669 5667 5663 5660 5656 5652 5649 5647 5645 5646 5649 5651 5654 5657 5659 5662 5664 5664 5665 5667 5669 5668 5666 5666 5664 5662 5659 5655 5651 5648 5644
5667 5669 5671 5672 5672 5672 5672 5671 5670 5667 5664 5661 5657 5653 5649 5644 5639 5635 5631 5628 5627 5628 5631 5634 5638 5643 5646 5649 5650 5652 5653 5656 5656 5655 5654 5655 5653 5649 5643 5642 5639 5635 5631
5661 5663 5664 5664 5664 5665 5665 5664 5661 5657 5653 5651 5647 5643 5638 5632 5626 5621 5617 5615 5613 5615 5617 5619 5624 5628 5633 5636 5638 5641 5643 5643 5644 5644 5643 5642 5638 5636 5634 5631 5626 5622 5618
5655 5655 5656 5657 5657 5657 5657 5655 5652 5649 5645 5642 5638 5634 5628 5620 5615 5612 5608 5602 5599 5601 5605 5610 5614 5621 5622 5626 5629 5632 5633 5634 5634 5633 5632 5631 5628 5626 5623 5618 5613 5609 5603
5648 5649 5649 5651 5651 5651 5650 5649 5646 5642 5640 5636 5632 5628 5621 5614 5608 5604 5602 5598 5594 5594 5597 5602 5609 5612 5615 5618 5622 5624 5625 5625 5624 5623 5621 5620 5617 5614 5609 5606 5601 5594 5588
5642 5643 5643 5644 5645 5645 5644 5643 5641 5638 5635 5631 5627 5623 5616 5610 5605 5601 5597 5594 5592 5592 5594 5598 5602 5602 5606 5611 5615 5617 5617 5616 5616 5613 5612 5609 5605 5602 5598 5593 5586 5579 5572
5638 5638 5638 5639 5639 5639 5639 5638 5636 5633 5631 5627 5623 5619 5614 5608 5603 5599 5596 5593 5593 5593 5594 5595 5596 5599 5603 5605 5608 5609 5609 5608 5607 5605 5602 5599 5595 5590 5585 5580 5574 5566 5558
5634 5634 5633 5634 5634 5634 5634 5633 5631 5629 5627 5625 5621 5616 5612 5607 5602 5599 5595 5594 5591 5592 5591 5592 5595 5597 5600 5602 5604 5604 5602 5601 5600 5597 5592 5587 5583 5578 5572 5567 5560 5553 5543
5629 5629 5629 5629 5629 5629 5629 5628 5627 5625 5623 5622 5619 5615 5611 5607 5603 5600 5598 5596 5594 5594 5595 5595 5596 5597 5598 5599 5599 5598 5596 5593 5589 5586 5583 5578 5572 5565 5559 5552 5544 5535 5525
5624 5624 5624 5624 5624 5624 5624 5623 5622 5620 5619 5619 5616 5613 5610 5607 5603 5601 5599 5598 5596 5596 5596 5596 5596 5596 5596 5595 5593 5590 5587 5584 5581 5577 5572 5566 5560 5553 5545 5537 5528 5518 5507
5621 5621 5621 5621 5621 5620 5620 5618 5617 5616 5615 5615 5613 5611 5608 5605 5603 5601 5600 5598 5597 5596 5595 5594 5593 5592 5590 5588 5586 5583 5580 5577 5572 5567 5561 5555 5548 5541 5532 5523 5511 5499 5486
5617 5618 5618 5618 5617 5616 5616 5615 5614 5613 5612 5611 5609 5608 5606 5604 5602 5600 5598 5597 5596 5594 5593 5591 5589 5586 5584 5582 5579 5576 5572 5567 5562 5556 5550 5543 5536 5528 5517 5504 5491 5478 5466
5614 5614 5614 5614 5613 5613 5612 5612 5611 5610 5608 5607 5607 5606 5604 5602 5600 5598 5596 5595 5593 5591 5588 5586 5584 5582 5579 5576 5572 5568 5564 5559 5553 5546 5539 5531 5522 5511 5499 5485 5473 5464 5457
5609 5609 5610 5610 5610 5609 5609 5608 5608 5607 5606 5605 5605 5603 5601 5599 5597 5595 5593 5591 5589 5586 5584 5581 5579 5576 5572 5569 5565 5560 5555 5549 5543 5536 5527 5518 5507 5494 5480 5471 5465 5459 5454